Terminal Aerodrome Forecast
Issued by NWS

Home | Current Version | Previous Version | Graphics & Text | Print | Product List | Glossary On
Versions: 1 2 3 4 5 6 7 8 9 10 11 12 13 14 15 16 17 18 19
000
FTUS43 KABR 201100
TAFMBG
TAF
KMBG 201132Z 2012/2112 VRB06KT P6SM BKN250
     FM201500 31008KT P6SM SCT250
     FM210100 09006KT P6SM SKC=

USA.gov is the U.S. government's official web portal to all federal, state and local government web resources and services.